Aéroport int. Stanfield de Halifax, Nouvelle Écosse

Conditions des dernières 24 heures

Ce tableau est un sommaire des conditions météo couvrant les dernières 24 heures. Ce sommaire inclut les paramètres suivants: température, humidité, point de rosée, direction et vitesse du vent, pression barométrique, facteur de refroidissement éolien ou indice humidex.
Date / Heure
(HAA)
Conditions Temp (°C) Humidite (%) Point de rose (°C) Vent (km/h) Pression (kPa) Visibilité (km)
23 avril 2014
15:00 Pluie faible 9 89 8 SE 21 99,9 24
14:00 Partiellement nuageux 11 82 9 SE 22 99,9 24
13:00 Nuageux 11 87 9 SE 19 100,0 24
12:00 Nuageux 10 92 9 SSE 11 100,1 24
11:00 Brume 8 96 8 SE 14 100,1 1
10:00 Brume 7 97 7 SE 15 100,2 1
9:00 Brouillard 7 98 6 ESE 17 100,2 0.6
8:00 Brouillard 6 98 6 SE 18 100,2 0.2
7:00 Brouillard 6 98 5 ESE 14 100,2 0.6
6:00 Brume 6 96 5 ESE 16 100,2 3
5:00 Généralement nuageux 5   97 5 ESE 11 100,2 16
4:00 Généralement nuageux 6 96 5 ESE 13 100,3 19
3:00 Généralement nuageux 6 96 5 SE 9 100,3 24
2:00 Nuageux 7 96 6 SE 12 100,4 19
1:00 Nuageux 7 97 6 SE 10 100,5 19
0:00 Brume 7 98 7 SE 16 100,5 2
22 avril 2014
23:00 Brume 7 98 7 SSE 12 100,6 2
22:00 Partiellement nuageux 8 95 7 SSE 14 100,6 19
21:00 Partiellement nuageux 10 92 8 S 14 100,6 19
20:00 Partiellement nuageux 11 87 8 SSE 10 100,5 24
19:00 Généralement ensoleillé 12 77 8 S 17 100,6 24
18:00 Généralement ensoleillé 13 66 7 SSO 23 100,6 24
17:00 Partiellement nuageux 13 66 7 S 23 rafale 35 100,6 24
16:00 Partiellement nuageux 15   55 6 SSO 25 100,6 24
15:00 Généralement nuageux 15   52 6 S 24 100,7 24
N.D.
non disponible
 ↑ 
température la plus haute
 ↓ 
température la plus basse

Si vous désirez plus de données historiques sur les conditions météo, s.v.p. visitez Données climatologiques en ligne.